Regional Weather Roundup
Issued by NWS Glasgow, MT

Home | Current Version | Previous Version | Text Only | Print | Product List | Glossary On
Versions: 1 2 3 4 5 6 7 8 9 10 11 12 13 14 15 16 17 18 19 20 21 22 23 24 25 26 27 28 29 30 31 32 33 34 35 36 37 38 39 40 41 42 43 44 45 46 47 48 49
000
ASUS45 KGGW 300215
RWRGGW
HOURLY WEATHER ROUNDUP FOR NORTHEAST MONTANA
NATIONAL WEATHER SERVICE GLASGOW MONTANA
800 PM MDT FRI AUG 29 2014

NOTE: "FAIR" INDICATES FEW OR NO CLOUDS BELOW 12,000 FEET WITH NO
SIGNIFICANT WEATHER AND/OR OBSTRUCTIONS TO VISISBILITY.

NORTHEAST MONTANA


CITY           SKY/WX    TMP DP  RH WIND       PRES   REMARKS
GLASGOW        CLEAR     64  53  67 SE7       29.90F
PLENTYWOOD       N/A     62  47  57 E1          N/A
WOLF POINT     CLEAR     68  49  50 SE3       29.92F
JORDAN           N/A     68  54  60 E6        29.91F
WINNETT          N/A     70  51  51 E3          N/A
SIDNEY         CLEAR     63  52  67 CALM      29.96S
GLENDIVE       CLEAR     64  52  63 E6        29.97S
MALTA            N/A     69  55  60 E3          N/A

FORT PECK REPORTS


CITY           SKY/WX    TMP DP  RH WIND       PRES   REMARKS
FORT PECK        N/A     68  56  65 E6          N/A
THE PINES        N/A     68  50  52 E5          N/A

SOUTHEAST MONTANA


CITY           SKY/WX    TMP DP  RH WIND       PRES   REMARKS
BILLINGS       PTCLDY    72  54  53 E9        29.92F
MILES CITY     CLEAR     67  51  56 E5        29.94F
BAKER          CLEAR     61  52  72 E5        29.99F
LIVINGSTON     PTCLDY    75  45  34 E10       29.90S

CENTRAL MONTANA


CITY           SKY/WX    TMP DP  RH WIND       PRES   REMARKS
HAVRE          CLEAR     72  50  45 SE8       29.80F
LEWISTOWN      PTCLDY    70  52  52 SE9       29.89F
GREAT FALLS    CLEAR     76  42  29 S3        29.81F
CUT BANK       CLEAR     70  45  40 SW3       29.81F
HELENA         CLEAR     79  44  28 CALM      29.83F
BUTTE          PTCLDY    74  37  26 NW5       29.94F
BOZEMAN        CLEAR     72  46  39 E5        29.88F

WESTERN MONTANA


CITY           SKY/WX    TMP DP  RH WIND       PRES   REMARKS
MISSOULA       CLEAR     79  36  21 NW8       29.81F
KALISPELL      NOT AVBL

NORTH DAKOTA


CITY           SKY/WX    TMP DP  RH WIND       PRES   REMARKS
WILLISTON      MOCLDY    65  49  56 SE3       29.95F
DICKINSON      CLEAR     61  51  70 NE5       29.97S
MINOT          CLEAR     57  51  80 CALM      29.96R
BISMARCK       CLEAR     64  54  69 NE8       29.96R

SOUTHERN SASKATCHEWAN


CITY           SKY/WX    TMP DP  RH WIND       PRES   REMARKS
REGINA         PTCLDY    61  46  59 E6        29.93F
ESTEVAN        PTCLDY    63  50  63 E3        29.96F
SWIFT CURRENT  CLEAR     63  48  59 S9        29.85F



USA.gov is the U.S. government's official web portal to all federal, state and local government web resources and services.